AirNav   Air Wisconsin pilot careers
 
 528 users online  

KSDM Brown Field Municipal Airport
San Diego, California, USA

GOING TO SAN DIEGO?


FAA INFORMATION EFFECTIVE 09 NOVEMBER 2017

Location

FAA Identifier: SDM
Lat/Long: 32-34-20.1800N / 116-58-48.5800W
32-34.336333N / 116-58.809667W
32.5722722 / -116.9801611
(estimated)
Elevation: 526.3 ft. / 160.4 m (surveyed)
Variation: 14E (1980)
From city: 13 miles SE of SAN DIEGO, CA
Time zone: UTC -8 (UTC -7 during Daylight Saving Time)
Zip code: 92154

Airport Operations

Airport use: Open to the public
Activation date: 03/1948
Control tower: yes
ARTCC: LOS ANGELES CENTER
FSS: SAN DIEGO FLIGHT SERVICE STATION
NOTAMs facility: SDM (NOTAM-D service available)
Attendance: 0900-1700
Pattern altitude: TPA: RWY 8L-26R 1000'AGL; 8R-26L 600'AGL.
Wind indicator: lighted
Segmented circle: yes
Lights: ACTVT REIL RWY 08L, PAPI RWY 08L & RWY 26R, HIRL RWY 08L/26R, AND MIRL RWY 08R/26L - CTAF.
Beacon: white-green (lighted land airport)
Operates sunset to sunrise.
International operations: customs landing rights airport

Airport Communications

CTAF: 128.25
UNICOM: 122.95
ATIS: 132.35
WX ASOS: PHONE 619-661-8297
BROWN GROUND: 124.4 [0800-2000]
BROWN TOWER: 128.25 225.4 [0800-2000]
SOCAL APPROACH: 124.35
SOCAL DEPARTURE: 125.15
CLEARANCE DELIVERY: 124.4
CHASR STAR: 124.35
CWARD SID: 119.6
PADRZ SID: 119.6
WX ASOS at NRS (7 nm W): PHONE 619-437-9890
WX ASOS at SAN (14 nm NW): PHONE 619-296-8934
WX AWOS-3P at SEE (15 nm N): 125.45 (619-449-1228)
WX ASOS at MYF (17 nm NW): PHONE 858-576-4337
  • FOR CLNC DEL WHEN ATCT CLSD CALL SOCAL APCH (800) 448-3724.

Nearby radio navigation aids

VOR radial/distance  VOR name  Freq  Var
PGYr167/2.3POGGI VORTAC109.8014E
TIJr311/2.3TIJUANA VOR/DME116.5014E
MZBr120/17.7MISSION BAY VORTAC117.8015E
JLIr195/39.5JULIAN VORTAC114.0015E

Airport Services

Fuel available: 100LL JET-A JET-A+
FOR FUEL AFT HRS CALL FBO'S AT (619) 671-9222; FEE FOR CALLOUT. MILITARY FUEL AVBL BY CALLING (619) 671-9222.
Parking: tiedowns
Airframe service: MAJOR
Powerplant service: MAJOR
Bottled oxygen: HIGH/LOW
Bulk oxygen: HIGH/LOW

Runway Information

Runway 8L/26R

Dimensions: 7972 x 150 ft. / 2430 x 46 m
Surface: asphalt/concrete, in good condition
Weight bearing capacity: 
Single wheel: 80.0
Double wheel: 110.0
Double tandem: 175.0
Runway edge lights: high intensity
RUNWAY 8L  RUNWAY 26R
Latitude: 32-34.427333N32-34.298967N
Longitude: 116-59.605333W116-58.060150W
Elevation: 526.3 ft.507.6 ft.
Gradient: 0.2%
Traffic pattern: leftright
Runway heading: 082 magnetic, 096 true262 magnetic, 276 true
Markings: nonprecision, in good conditionnonprecision, in good condition
Visual slope indicator: 4-light PAPI on left (3.00 degrees glide path)4-light PAPI on left (4.00 degrees glide path)
RWY 26R PAPI UNUSABLE BYD 3 NM.
Runway end identifier lights: yesyes
Touchdown point: yes, no lightsyes, no lights

Runway 8R/26L

Dimensions: 3180 x 75 ft. / 969 x 23 m
Surface: asphalt, in good condition
Weight bearing capacity: 
Single wheel: 14.0, OPERATOR PERMITS ONLY 12000 LBS.
Runway edge lights: medium intensity
Gradient: W
RUNWAY 8R  RUNWAY 26L
Latitude: 32-34.294897N32-34.243833N
Longitude: 116-59.059943W116-58.443500W
Elevation: 520.8 ft.505.0 ft.
Gradient: 0.3%0.3% UP
Traffic pattern: rightleft
Runway heading: 082 magnetic, 096 true262 magnetic, 276 true
Markings: basic, in good conditionbasic, in good condition
Touchdown point: yes, no lightsyes, no lights

Airport Ownership and Management from official FAA records

Ownership: Publicly-owned
Owner: CITY OF SAN DIEGO
1424 CONTINENTAL ST
SAN DIEGO, CA 92154
Phone 619-424-0455
Manager: ANDY SCHWARTZ
1424 CONTINENTAL ST
SAN DIEGO, CA 92154
Phone 619-424-0456

Airport Operational Statistics

Aircraft based on the field: 197
Single engine airplanes: 157
Multi engine airplanes: 21
Jet airplanes: 12
Helicopters: 7
    
Aircraft operations: avg 231/day *
56% local general aviation
38% transient general aviation
4% military
2% air taxi
* for 12-month period ending 31 March 2017

Additional Remarks

BE ALERT TO ARPT BDRY ONE MILE NORTH FM MEXICAN/USA INTL BORDER.
PARA JUMPING ON AIRPORT AND 3 MILES EAST.
BE ALERT TO HIGH TERRAIN 3,566 FT. MSL SIX MILES EAST OF AIRPORT.
BE ALERT WHEN DEPARTING ON RY 08L AT NIGHT DUE TO RISING TERRAIN TO THE EAST.
NOISE SENSITIVE AREAS APPROX 1 MILE WEST OF AIRPORT, 1/2 MILE NORTHWEST, AND 2 MILES NORTH.
TWY A WEST OF TWY B RESTRICTED TO AIRCRAFT WITH WINGSPANS OF 133 FT OR LESS.
AVOID DCT OVERFLIGHT OF PIO PICO ENERGY CENTER BLO 2000 FT AGL, 3 NM EAST OF AP.
NO ENGINE OPNS ON RAMPS EXCEPT AS NECESSARY FOR ARRIVALS/DEPARTURES.

Instrument Procedures

NOTE: All procedures below are presented as PDF files. If you need a reader for these files, you should download the free Adobe Reader.

NOT FOR NAVIGATION. Please procure official charts for flight.
FAA instrument procedures published for use between 9 November 2017 at 0901Z and 7 December 2017 at 0900Z.

 
STARs - Standard Terminal Arrivals
CHASR ONE (RNAV)   download (179KB)
 
IAPs - Instrument Approach Procedures
RNAV (GPS) RWY 08L   download (286KB)
VOR OR GPS-A   download (273KB)
NOTE: Special Alternate Minimums apply   download (30KB)
 
Departure Procedures
CWARD ONE (RNAV)   download (188KB)
PADRZ ONE (RNAV)   2 pages: [1] [2] (252KB)
NOTE: Special Take-Off Minimums/Departure Procedures apply   download (132KB)

Other nearby airports with instrument procedures:

KNRS - Imperial Beach Naval Outlying Field (Ream Field) (7 nm W)
KNZY - North Island Naval Air Station (Halsey Field) (14 nm NW)
KSAN - San Diego International Airport (14 nm NW)
KSEE - Gillespie Field Airport (15 nm N)
KMYF - Montgomery-Gibbs Executive Airport (17 nm NW)
KNKX - Miramar Marine Corps Air Station (20 nm NW)
 
Loc | Ops | Rwys | IFR | FBO | Links
Com | Nav | Svcs | Stats | Notes

San Bernardino International Airport Authority
 
Area around KSDM (Brown Field Municipal Airport)
 
Road maps at: MapQuest Bing Google
 
Aerial photo
WARNING: Photo may not be current or correct
Aerial photo of KSDM (Brown Field Municipal Airport)
Photo courtesy of helihigh.com & Mark Robinson
Photo taken 21-Aug-2012
looking west.

Do you have a better or more recent aerial photo of Brown Field Municipal Airport that you would like to share? If so, please send us your photo.

 
Sectional chart

 
Airport diagram
CAUTION: Diagram may not be current
Diagram of KSDM (Brown Field Municipal Airport)
Download PDF
of official airport diagram from the FAA

 
Airport distance calculator
Flying to Brown Field Municipal Airport? Find the distance to fly.

From to KSDM

Sunrise and sunset
Times for 19-Nov-2017
 Local
(UTC-8)
 Zulu
(UTC)
Morning civil twilight05:5613:56
Sunrise06:2214:22
Sunset16:4400:44
Evening civil twilight17:1101:11

Current date and time
Zulu (UTC)  20-Nov-2017 06:03:52
Local (UTC-8)  19-Nov-2017 22:03:52
 
METAR
KSDM 200553Z AUTO 12004KT 7SM CLR 11/07 A3002 RMK AO2 SLP164 T01060067 10211 20106 53007
MMTJ 
2nm S 
200543Z 00000KT 8SM SCT200 12/07 A3004 RMK SLP174 52012 974 8/008
KNRS 
7nm W 
200556Z AUTO 09004KT 10SM CLR 12/10 A3003 RMK AO2 SLP167 T01170100 10200 20100 51006 $
KSAN 
14nm NW 
200551Z 00000KT 10SM FEW150 SCT200 15/08 A3004 RMK AO2 SLP171 T01500083 10211 20150 53009 $
KNZY 
14nm NW 
200552Z 00000KT 10SM FEW150 SCT200 14/12 A3002 RMK SLP164 T01390122 10206 20139 53008
KSEE 
15nm N 
200555Z AUTO 28004KT 10SM CLR 11/03 A3002 RMK AO2
KMYF 
17nm NW 
200553Z AUTO 00000KT 10SM CLR 16/07 A3002 RMK AO2 SLP163 T01560067 10239 20156 51007
KNKX 
19nm NW 
200455Z 04004KT 10SM FEW150 FEW250 12/05 A3002 RMK AO2 SLP159 T01220050 $
TAF
MMTJ 
2nm S 
200452Z 2006/2112 00000KT P6SM SCT200 TX23/2021Z TN12/2012Z FM201100 34005KT 5SM HZ SCT015 SCT200 FM201800 29010KT P6SM SCT020 BKN200 BECMG 2105/2107 02004KT SCT220
KSAN 
14nm NW 
200520Z 2006/2112 VRB04KT P6SM VCFG SCT004 SCT200 FM202100 30009KT P6SM SCT200 FM210100 VRB04KT P6SM SCT200
KNZY 
14nm NW 
1923/2023 VRB06KT 9999 SCT120 BKN250 QNH2985INS TEMPO 2009/2015 0400 FG VV002 T21/1923Z T13/2015Z FS30037
KNKX 
19nm NW 
2003/2103 VRB06KT 9999 FEW150 FEW250 QNH2997INS BECMG 2003/2005 VRB05KT 9999 VCFG FEW005 SCT200 QNH2999INS TEMPO 2009/2015 4800 BR BKN005 FM201630 30008KT 9999 SCT200 QNH2994INS T13/2014Z T26/2021Z
NOTAMs
Click for the latest NOTAMs
NOTAMs are issued by the DoD/FAA and will open in a separate window not controlled by AirNav.

 

 
 

FBO, Fuel Providers, and Aircraft Ground Support

  
 Business Name 
 
 Contact 
 
 Services / Description 
 
Fuel Prices
 
Comments
  
 San Diego Jet Center
619-671-9222
toll-free 1-866-736-5382
[web site]
[email]
The only full service FBO at KSDM dedicated to providing excellent service at a competitive price.
 
U.S. Government Contract Fuel   U.S. Customs Service   AVTRIP   Hertz  
 
More info about San Diego Jet Center
Avfuel
100LL Jet A
FS $5.19 $4.39 
SS $4.59 --- 
 Updated 11-Nov-2017
 
   write
First Flight 619-661-6522
[web site]
[email]
Aviation fuel, Oxygen service, Aircraft parking (ramp or tiedown), GPU / Power cart, Flight training, Aircraft rental, Aerial tours / aerial sightseeing, ...

More info about First Flight
EPIC
100LL Jet A
FS --- $3.39 
SS $4.59 --- 
GUARANTEED
 
   1 read write
Alternatives at nearby airports
IMPORTANT: Note that the FBOs below are NOT at KSDM but at other nearby airports. Do not expect services from these FBOs to be available at KSDM.
Located at KSBD
Luxivair SBD
909-382-6068
[web site]
[email]

Like us on facebook Follow us on twitter
At KSBD (San Bernardino International Airport), 92 miles N

Aviation fuel, Aircraft ground handling, Oxygen service, Aircraft parking (ramp or tiedown), Hangars, Hangar leasing / sales, GPU / Power cart, ...
More info and photos of Luxivair SBD (KSBD)
Located at KSBD
EPIC
100LL Jet A
FS $4.99 $3.72 
SS $4.29 --- 
 Updated 20-Nov-2017
 
   12 read write
FS=Full service
SS=Self service
Update Fuel Prices
 

Would you like to see your business listed on this page?

 If your business provides an interesting product or service to pilots, flight crews, aircraft, or users of the Brown Field Municipal Airport, you should consider listing it here.  To start the listing process, click on the button below
 
Add a business
 

Other Pages about Brown Field Municipal Airport

www.sandiego.gov/...
 
Update a link
 
Copyright © AirNav, LLC. All rights reserved. Privacy Policy  Contact